Stations météo

réclame
Mon MeteoGroup
Edinburgh/Royal Botanic Garden , Grande-Bretagne (99180): Température de l'air & dewpoint: 07.11.2019 21:00:00 - 13.11.2019 21:00:00 (GMT)Edinburgh/Royal Botanic Garden , Grande-Bretagne (99180): Température de l'air -20cm & Température de l'air -100cm: 07.11.2019 21:00:00 - 13.11.2019 21:00:00 (GMT)Edinburgh/Royal Botanic Garden , Grande-Bretagne (99180): Quantités de précipitations: 07.11.2019 21:00:00 - 13.11.2019 21:00:00 (GMT)
Date & Time tt [°C] td [°C] tt -20cm [°C] tt -100cm [°C] rr [mm]
13.11.2019 21:00:00 -0,8 -1,3 - - -
13.11.2019 20:00:00 -0,5 -1,3 - - 0,0
13.11.2019 19:00:00 0,5 -0,5 - - 0,0
13.11.2019 18:00:00 1,3 0,1 - - 0,0
13.11.2019 17:00:00 2,0 -0,2 - - 0,0
13.11.2019 16:00:00 4,2 1,2 - - 0,0
13.11.2019 15:00:00 3,9 0,9 - - 0,0
13.11.2019 14:00:00 3,4 1,3 - - 0,0
13.11.2019 13:00:00 3,1 2,2 - - 0,0
13.11.2019 12:00:00 2,3 1,7 - - 0,0
13.11.2019 11:00:00 0,8 0,6 - - 0,0
13.11.2019 10:00:00 0,0 -0,1 - - 0,0
13.11.2019 09:00:00 -1,3 -1,4 6,4 9,2 0,0
13.11.2019 08:00:00 -2,3 -2,5 - - 0,0
13.11.2019 07:00:00 -2,1 -2,4 - - 0,0
13.11.2019 06:00:00 -2,4 -2,9 - - 0,0
13.11.2019 05:00:00 -1,8 -2,1 - - 0,0
13.11.2019 04:00:00 -1,7 -2,2 - - 0,0
13.11.2019 03:00:00 -0,9 -1,4 - - 0,0
13.11.2019 02:00:00 -0,5 -1,1 - - 0,0
13.11.2019 01:00:00 -0,6 -1,4 - - 0,0
13.11.2019 00:00:00 0,0 -1,2 - - 0,0
12.11.2019 23:00:00 1,4 0,0 - - 0,0
12.11.2019 22:00:00 1,8 -0,3 - - 0,0
12.11.2019 21:00:00 3,5 -0,2 - - 0,0
12.11.2019 20:00:00 4,1 0,3 - - 0,0
12.11.2019 19:00:00 5,9 1,0 - - 0,0
12.11.2019 18:00:00 6,6 2,0 - - 0,0
12.11.2019 17:00:00 7,0 2,6 - - 0,0
12.11.2019 16:00:00 7,4 3,1 - - 0,0
12.11.2019 15:00:00 7,8 3,5 - - 0,0
12.11.2019 14:00:00 7,9 3,7 - - 0,0
12.11.2019 13:00:00 8,3 3,4 - - 0,0
12.11.2019 12:00:00 8,9 4,2 - - 0,0
12.11.2019 11:00:00 7,8 4,5 - - 0,0
12.11.2019 10:00:00 6,8 4,2 - - 0,0
12.11.2019 09:00:00 6,2 3,7 6,7 9,4 0,0
12.11.2019 08:00:00 5,4 3,8 - - 0,4
12.11.2019 07:00:00 4,8 3,3 - - 0,2
12.11.2019 06:00:00 3,7 2,1 - - 0,0
12.11.2019 05:00:00 2,9 2,1 - - 0,0
12.11.2019 04:00:00 2,4 1,7 - - 0,2
12.11.2019 03:00:00 2,3 1,2 - - 0,0
12.11.2019 02:00:00 3,7 2,2 - - 0,0
12.11.2019 01:00:00 4,5 2,8 - - 0,0
12.11.2019 00:00:00 4,6 2,8 - - 0,0
11.11.2019 23:00:00 4,8 3,1 - - 0,0
11.11.2019 22:00:00 4,8 3,2 - - 0,0
11.11.2019 21:00:00 5,3 3,6 - - 0,2
11.11.2019 20:00:00 5,4 3,2 - - 0,0
11.11.2019 19:00:00 5,4 3,7 - - 0,2
11.11.2019 18:00:00 5,5 3,6 - - 0,0
11.11.2019 17:00:00 5,8 3,6 - - 0,0
11.11.2019 16:00:00 6,1 3,8 - - 0,0
11.11.2019 15:00:00 5,7 4,3 - - 0,0
11.11.2019 14:00:00 5,3 4,0 - - 0,2
11.11.2019 13:00:00 4,9 3,7 - - 0,4
11.11.2019 12:00:00 6,2 5,0 - - 0,0
11.11.2019 11:00:00 5,9 3,7 - - 0,0
11.11.2019 10:00:00 6,1 4,3 - - 0,0
11.11.2019 09:00:00 5,9 3,9 6,5 9,7 0,0
11.11.2019 08:00:00 5,2 3,4 - - 0,2
11.11.2019 07:00:00 5,4 4,7 - - 0,2
11.11.2019 06:00:00 4,7 4,2 - - 0,6
11.11.2019 05:00:00 4,1 2,7 - - 0,0
11.11.2019 04:00:00 4,1 2,4 - - 0,2
11.11.2019 03:00:00 4,1 2,3 - - 0,0
11.11.2019 02:00:00 3,6 2,4 - - 0,2
11.11.2019 01:00:00 3,6 2,3 - - 0,8
11.11.2019 00:00:00 3,7 2,5 - - 1,8
10.11.2019 23:00:00 3,7 2,1 - - 0,6
10.11.2019 22:00:00 3,6 1,7 - - 0,4
10.11.2019 21:00:00 4,1 1,0 - - 0,0
10.11.2019 20:00:00 4,1 1,0 - - 0,0
10.11.2019 19:00:00 3,6 1,4 - - 0,0
10.11.2019 18:00:00 2,9 0,5 - - 0,0
10.11.2019 17:00:00 3,3 0,4 - - 0,0
10.11.2019 16:00:00 4,4 0,3 - - 0,0
10.11.2019 15:00:00 5,0 -0,6 - - 0,0
10.11.2019 14:00:00 5,2 -0,4 - - 0,0
10.11.2019 13:00:00 4,6 -1,0 - - 0,0
10.11.2019 12:00:00 4,6 -0,6 - - 0,0
10.11.2019 11:00:00 3,7 -0,6 - - 0,0
10.11.2019 10:00:00 2,8 -0,7 - - 0,0
10.11.2019 09:00:00 2,3 -1,1 6,5 9,7 0,0
10.11.2019 08:00:00 2,1 -0,6 - - 0,0
10.11.2019 07:00:00 2,1 -0,5 - - 0,0
10.11.2019 06:00:00 2,8 -1,3 - - 0,0
10.11.2019 05:00:00 4,2 -1,3 - - 0,0
10.11.2019 04:00:00 4,4 -1,1 - - 0,0
10.11.2019 03:00:00 4,0 -1,5 - - 0,0
10.11.2019 02:00:00 4,3 -1,0 - - 0,0
10.11.2019 01:00:00 4,9 -1,0 - - 0,0
10.11.2019 00:00:00 5,2 -0,4 - - 0,0
09.11.2019 23:00:00 4,9 1,2 - - 0,0
09.11.2019 22:00:00 5,2 1,2 - - 0,0
09.11.2019 21:00:00 4,9 0,7 - - 0,0
09.11.2019 20:00:00 3,4 2,4 - - 0,6
09.11.2019 19:00:00 4,6 1,4 - - 0,0
09.11.2019 18:00:00 4,6 1,4 - - 0,0
09.11.2019 17:00:00 5,1 0,6 - - 0,0
09.11.2019 16:00:00 5,7 0,3 - - 0,0
09.11.2019 15:00:00 6,8 -1,1 - - 0,0
09.11.2019 14:00:00 6,5 -0,9 - - 0,0
09.11.2019 13:00:00 7,3 -1,0 - - 0,0
09.11.2019 12:00:00 6,2 -0,9 - - 0,0
09.11.2019 11:00:00 4,8 -1,1 - - 0,0
09.11.2019 10:00:00 4,4 -1,3 - - 0,2
09.11.2019 09:00:00 2,2 -1,3 7,0 10,0 0,0
09.11.2019 08:00:00 0,0 -1,4 - - 0,0
09.11.2019 07:00:00 0,8 -1,4 - - 0,0
09.11.2019 06:00:00 0,7 -0,8 - - 0,0
09.11.2019 05:00:00 -0,4 -0,8 - - 0,0
09.11.2019 04:00:00 -1,0 -1,3 - - 0,0
09.11.2019 03:00:00 -1,3 -1,5 - - 0,0
09.11.2019 02:00:00 -1,5 -1,9 - - 0,0
09.11.2019 01:00:00 -0,8 -1,2 - - 0,0
09.11.2019 00:00:00 -0,5 -0,9 - - 0,0
08.11.2019 23:00:00 -0,2 -0,7 - - 0,0
08.11.2019 22:00:00 0,3 -0,4 - - 0,0
08.11.2019 21:00:00 1,5 0,8 - - 0,0
08.11.2019 20:00:00 2,0 0,2 - - 0,0
08.11.2019 19:00:00 4,1 1,0 - - 0,0
08.11.2019 18:00:00 4,3 0,6 - - 0,0
08.11.2019 17:00:00 5,9 0,9 - - 0,0
08.11.2019 16:00:00 6,2 1,2 - - 0,0
08.11.2019 15:00:00 6,5 1,2 - - 0,0
08.11.2019 14:00:00 6,1 1,3 - - 0,0
08.11.2019 13:00:00 5,8 0,3 - - 0,0
08.11.2019 12:00:00 5,0 0,5 - - 0,0
08.11.2019 11:00:00 3,7 0,9 - - 0,0
08.11.2019 10:00:00 2,4 0,2 - - 0,0
08.11.2019 09:00:00 0,5 -0,7 8,0 10,0 0,0
08.11.2019 08:00:00 0,2 -1,0 - - 0,0
08.11.2019 07:00:00 0,5 -1,1 - - 0,0
08.11.2019 06:00:00 3,0 -0,8 - - 0,0
08.11.2019 05:00:00 3,6 -0,6 - - 0,0
08.11.2019 04:00:00 4,3 0,2 - - 0,0
08.11.2019 03:00:00 4,6 0,7 - - 0,0
08.11.2019 02:00:00 4,8 1,1 - - 0,0
08.11.2019 01:00:00 5,1 1,2 - - 0,0
08.11.2019 00:00:00 5,5 1,0 - - 0,0
07.11.2019 23:00:00 5,6 2,7 - - 0,6
07.11.2019 22:00:00 5,8 2,7 - - 0,0
07.11.2019 21:00:00 5,6 2,8 - - -

tt = Température de l'air
td = dewpoint
tt -20cm = Température de l'air -20cm
tt -100cm = Température de l'air -100cm
rr = Quantités de précipitations

stations d'obs. à proximité